contact:dominique.lefevre@mio.osupytheas.fr, maurice.libes@osupytheas.fr
Project:EMSO Ligure-ouest http://www.emso-fr.org/EMSO-France
Sensor Aquadopp, line 13 Serial AQD14315 
DOI : "https://doi.org/10.17882/74513; https://doi.org/10.17882/83244" 
Title:EMSO Ligure Ouest : Data ligne ALBATROSS capteur AQUADOPP - deploiement 2021
Id,Date,Profondeur,Latitude,Longitude,X_East,Y_North,Z_Up,Amplitude_X,Amplitude_Y,Amplitude_Z,Batterie,SoundSpeed,Heading,Pitch,Roll,Pressure,Temperature,Speed,Direction
, , m, degrees North, degrees East, m.s-1, m.s-1,m.s-1, 1, 1, 1, Volt, m.s-1, degree, degree, degree, dbar, degree_C, m.s-1, degree
07,2022-03-11T21:30:00,1500.0,42.79,6.0312,0.034,-0.007,0.005,46.0,47.0,47.0,12.2,1504.0,41.6,0.0,-0.3,1472.519,13.11,0.034,101.6
07,2022-03-11T22:00:00,1500.0,42.79,6.0312,0.03,-0.011,0.004,47.0,47.0,48.0,12.2,1504.0,42.6,-0.2,0.0,1472.497,13.11,0.031,110.1
07,2022-03-11T22:30:00,1500.0,42.79,6.0312,0.035,-0.015,0.005,48.0,48.0,46.0,12.2,1504.0,44.8,-0.2,-0.3,1472.505,13.11,0.038,113.2
07,2022-03-11T23:00:00,1500.0,42.79,6.0312,0.041,-0.009,0.001,48.0,47.0,47.0,12.2,1504.0,41.2,0.3,-0.3,1472.545,13.11,0.041,102.4
07,2022-03-11T23:30:00,1500.0,42.79,6.0312,0.034,-0.015,-0.012,47.0,47.0,48.0,12.2,1504.0,43.0,0.0,-0.2,1472.506,13.11,0.037,113.8
07,2022-03-12T00:00:00,1500.0,42.79,6.0312,0.024,-0.018,0.004,48.0,48.0,48.0,12.2,1504.0,43.2,-0.1,-0.1,1472.573,13.11,0.03,126.9
07,2022-03-12T00:30:00,1500.0,42.79,6.0312,0.043,-0.015,0.008,47.0,48.0,48.0,12.2,1504.0,44.8,-0.2,-0.3,1472.54,13.11,0.045,109.2
07,2022-03-12T01:00:00,1500.0,42.79,6.0312,0.045,-0.013,-0.001,49.0,47.0,48.0,12.2,1504.0,49.0,0.2,0.0,1472.545,13.11,0.046,106.1
07,2022-03-12T01:30:00,1500.0,42.79,6.0312,0.045,-0.008,-0.01,46.0,48.0,47.0,12.2,1504.0,50.4,-0.3,-0.1,1472.557,13.11,0.045,100.1
07,2022-03-12T02:00:00,1500.0,42.79,6.0312,0.032,-0.027,-0.009,47.0,48.0,48.0,12.2,1504.0,54.6,-0.3,-0.4,1472.553,13.11,0.041,130.2
07,2022-03-12T02:30:00,1500.0,42.79,6.0312,0.05,-0.017,0.002,49.0,49.0,48.0,12.2,1504.0,46.5,0.4,-0.3,1472.567,13.11,0.052,108.8
07,2022-03-12T03:00:00,1500.0,42.79,6.0312,0.041,-0.022,-0.001,47.0,49.0,48.0,12.2,1504.0,49.0,0.4,0.0,1472.589,13.11,0.046,118.2
07,2022-03-12T03:30:00,1500.0,42.79,6.0312,0.032,-0.022,0.003,46.0,48.0,48.0,12.2,1504.0,53.3,0.2,-0.4,1472.608,13.11,0.038,124.5
07,2022-03-12T04:00:00,1500.0,42.79,6.0312,0.035,-0.03,-0.005,46.0,49.0,47.0,12.2,1504.0,50.1,-0.2,-0.1,1472.602,13.11,0.046,130.6
07,2022-03-12T04:30:00,1500.0,42.79,6.0312,0.028,-0.014,-0.009,48.0,47.0,46.0,12.2,1504.0,46.3,-0.1,-0.4,1472.578,13.11,0.031,116.6
07,2022-03-12T05:00:00,1500.0,42.79,6.0312,0.03,-0.028,0.004,46.0,47.0,46.0,12.2,1504.1,45.0,0.5,-0.2,1472.575,13.12,0.041,133.0
07,2022-03-12T05:30:00,1500.0,42.79,6.0312,0.04,-0.03,-0.007,46.0,48.0,46.0,12.2,1504.1,35.8,0.1,-0.1,1472.593,13.13,0.05,126.9
07,2022-03-12T06:00:00,1500.0,42.79,6.0312,0.022,-0.024,-0.005,46.0,47.0,47.0,12.2,1504.1,28.2,0.3,-0.4,1472.556,13.13,0.032,137.5
07,2022-03-12T06:30:00,1500.0,42.79,6.0312,0.029,-0.023,-0.01,47.0,49.0,47.0,12.2,1504.1,24.1,0.0,-0.3,1472.563,13.13,0.037,128.4
07,2022-03-12T07:00:00,1500.0,42.79,6.0312,0.021,-0.025,0.003,46.0,46.0,46.0,12.2,1504.1,20.5,0.2,-0.4,1472.6,13.13,0.032,140.0
07,2022-03-12T07:30:00,1500.0,42.79,6.0312,0.018,-0.025,0.009,46.0,47.0,47.0,12.2,1504.1,16.8,-0.4,-0.1,1472.565,13.13,0.03,144.2
07,2022-03-12T08:00:00,1500.0,42.79,6.0312,0.013,-0.022,-0.007,45.0,46.0,45.0,12.2,1504.1,10.6,0.0,-0.3,1472.582,13.13,0.025,149.4
07,2022-03-12T08:30:00,1500.0,42.79,6.0312,0.022,-0.027,0.006,46.0,46.0,46.0,12.2,1504.1,11.7,-0.1,-0.4,1472.522,13.12,0.034,140.8
07,2022-03-12T09:00:00,1500.0,42.79,6.0312,0.015,-0.017,-0.002,48.0,47.0,47.0,12.2,1504.1,13.7,-0.4,0.0,1472.535,13.12,0.022,138.6
07,2022-03-12T09:30:00,1500.0,42.79,6.0312,0.036,-0.022,0.021,50.0,49.0,47.0,12.2,1504.1,18.5,-0.4,-0.1,1472.554,13.12,0.042,121.4
07,2022-03-12T10:00:00,1500.0,42.79,6.0312,0.023,-0.021,0.015,45.0,47.0,49.0,12.2,1504.0,20.9,0.4,-0.2,1472.545,13.11,0.031,132.4
07,2022-03-12T10:30:00,1500.0,42.79,6.0312,0.019,-0.017,0.004,46.0,48.0,48.0,12.2,1504.0,27.2,0.2,-0.2,1472.545,13.11,0.025,131.8
07,2022-03-12T11:00:00,1500.0,42.79,6.0312,0.025,-0.013,0.012,48.0,47.0,50.0,12.2,1504.1,31.6,-0.2,-0.2,1472.531,13.12,0.028,117.5
07,2022-03-12T11:30:00,1500.0,42.79,6.0312,0.025,-0.001,0.007,48.0,48.0,46.0,12.2,1504.1,37.2,0.3,-0.2,1472.499,13.12,0.025,92.3
07,2022-03-12T12:00:00,1500.0,42.79,6.0312,0.038,-0.022,-0.003,47.0,48.0,48.0,12.2,1504.1,40.2,0.2,-0.2,1472.504,13.12,0.043,120.1
07,2022-03-12T12:30:00,1500.0,42.79,6.0312,0.034,-0.013,-0.004,47.0,47.0,47.0,12.2,1504.1,42.8,0.3,0.1,1472.521,13.12,0.036,110.9
07,2022-03-12T13:00:00,1500.0,42.79,6.0312,0.036,-0.007,0.008,46.0,48.0,47.0,12.2,1504.1,42.1,-0.1,-0.1,1472.537,13.12,0.036,101.0
07,2022-03-12T13:30:00,1500.0,42.79,6.0312,0.033,-0.016,0.0,47.0,50.0,47.0,12.2,1504.1,47.7,-0.1,-0.3,1472.536,13.12,0.036,115.9
07,2022-03-12T14:00:00,1500.0,42.79,6.0312,0.038,-0.009,0.013,49.0,47.0,47.0,12.2,1504.0,50.5,0.3,-0.3,1472.547,13.11,0.039,103.3
07,2022-03-12T14:30:00,1500.0,42.79,6.0312,0.027,-0.019,0.005,48.0,48.0,49.0,12.2,1504.0,47.5,0.0,0.0,1472.528,13.11,0.033,125.1
07,2022-03-12T15:00:00,1500.0,42.79,6.0312,0.034,-0.01,-0.002,49.0,49.0,49.0,12.2,1504.0,48.6,0.1,-0.3,1472.554,13.11,0.035,106.4
07,2022-03-12T15:30:00,1500.0,42.79,6.0312,0.029,-0.001,0.012,48.0,52.0,49.0,12.2,1504.0,47.5,0.0,-0.1,1472.546,13.11,0.029,92.0
07,2022-03-12T16:00:00,1500.0,42.79,6.0312,0.03,-0.005,0.001,49.0,48.0,47.0,12.2,1504.0,33.2,-0.3,-0.3,1472.51,13.11,0.03,99.5
07,2022-03-12T16:30:00,1500.0,42.79,6.0312,0.039,-0.009,-0.005,51.0,48.0,49.0,12.2,1504.0,35.5,0.0,-0.1,1472.533,13.11,0.04,103.0
07,2022-03-12T17:00:00,1500.0,42.79,6.0312,0.029,-0.005,-0.013,48.0,50.0,48.0,12.2,1504.0,43.6,0.2,-0.1,1472.53,13.11,0.029,99.8
07,2022-03-12T17:30:00,1500.0,42.79,6.0312,0.035,-0.001,-0.014,49.0,49.0,50.0,12.2,1504.0,43.0,0.2,-0.3,1472.55,13.11,0.035,91.6
07,2022-03-12T18:00:00,1500.0,42.79,6.0312,0.043,-0.019,-0.01,50.0,50.0,48.0,12.2,1504.0,40.2,0.0,-0.4,1472.49,13.11,0.047,113.8
07,2022-03-12T18:30:00,1500.0,42.79,6.0312,0.04,-0.013,-0.011,49.0,50.0,52.0,12.2,1504.1,43.7,0.1,-0.2,1472.517,13.12,0.042,108.0
07,2022-03-12T19:00:00,1500.0,42.79,6.0312,0.046,-0.02,0.0,49.0,50.0,49.0,12.2,1504.1,46.5,-0.4,-0.5,1472.485,13.12,0.05,113.5
07,2022-03-12T19:30:00,1500.0,42.79,6.0312,0.04,-0.03,-0.008,49.0,49.0,48.0,12.2,1504.1,53.3,0.7,-0.3,1472.498,13.12,0.05,126.9
07,2022-03-12T20:00:00,1500.0,42.79,6.0312,0.026,-0.019,0.0,48.0,50.0,49.0,12.2,1504.1,62.1,0.1,-0.4,1472.471,13.12,0.032,126.2
07,2022-03-12T20:30:00,1500.0,42.79,6.0312,0.037,-0.022,0.006,48.0,49.0,49.0,12.2,1504.1,59.4,-0.6,-0.1,1472.493,13.12,0.043,120.7
07,2022-03-12T21:00:00,1500.0,42.79,6.0312,0.033,-0.013,0.014,52.0,51.0,50.0,12.2,1504.1,63.5,-0.3,-0.3,1472.49,13.12,0.035,111.5
